STARLINK-32692

Last updated on Thu Jan 23 2025 00:02:04 GMT+0000 (Coordinated Universal Time)

1 62422U 24249P 25022.50001157 -.00043830 00000+0 -10470-2 0 9990 2 62422 42.9994 130.5729 0001462 263.6962 33.5370 15.40728826 4805
UTC large
Height (km)
Speed (km/s)
/
Latitude / Longitude
Inclination (degrees)
Orbital Period (minutes)
Azimuth
Elevation
Range (km)
Doppler Factor

Next 0 passes for location: London (51.5072 / 0.1276)

Sorry there are no passes over London.